| time (UTC) | temp C | wind direction | speed KPH | gust KPH | rain 1hr cm | rain 24hr cm | rain mn cm | humidity % | barometer mb |
| 20260506112720 | 13 | 154 | 0.0 | 0.0 | 0.00 | 0.00 | 0.00 | 91 | 1018.0 |
| 20260506111654 | 13 | 143 | 0.0 | 1.6 | 0.00 | 0.00 | 0.00 | 90 | 1018.0 |
| 20260506110646 | 13 | 143 | 0.0 | 0.0 | 0.00 | 0.00 | 0.00 | 91 | 1017.9 |
| 20260506105614 | 13 | 143 | 0.0 | 0.0 | 0.00 | 0.00 | 0.00 | 90 | 1017.9 |
| 20260506104615 | 13 | 143 | 0.0 | 1.6 | 0.00 | 0.00 | 0.00 | 90 | 1017.8 |
| 20260506103610 | 13 | 149 | 0.0 | 1.6 | 0.00 | 0.00 | 0.00 | 90 | 1017.7 |
| 20260506102610 | 13 | 154 | 0.0 | 0.0 | 0.00 | 0.00 | 0.00 | 90 | 1017.7 |
| 20260506101610 | 13 | 154 | 0.0 | 0.0 | 0.00 | 0.00 | 0.00 | 90 | 1017.7 |
| 20260506100601 | 13 | 154 | 0.0 | 0.0 | 0.00 | 0.00 | 0.00 | 90 | 1017.6 |
| 20260506100031 | 13 | 154 | 0.0 | 0.0 | 0.00 | 0.00 | 0.00 | 90 | 1017.5 |
| 20260506094522 | 13 | 154 | 0.0 | 0.0 | 0.00 | 0.00 | 0.00 | 89 | 1017.4 |
| 20260506093511 | 13 | 191 | 0.0 | 3.2 | 0.00 | 0.00 | 0.00 | 89 | 1017.4 |
| 20260506092510 | 13 | 191 | 0.0 | 1.6 | 0.00 | 0.00 | 0.00 | 89 | 1017.5 |
| 20260506091944 | 13 | 191 | 0.0 | 3.2 | 0.00 | 0.00 | 0.00 | 89 | 1017.6 |
| 20260506090445 | 13 | 213 | 0.0 | 3.2 | 0.00 | 0.00 | 0.00 | 88 | 1017.6 |
| 20260506085438 | 13 | 227 | 0.0 | 3.2 | 0.00 | 0.00 | 0.00 | 88 | 1017.6 |
| 20260506084923 | 13 | 239 | 0.0 | 1.6 | 0.00 | 0.00 | 0.00 | 88 | 1017.6 |
| 20260506083438 | 13 | 159 | 0.0 | 3.2 | 0.00 | 0.00 | 0.00 | 87 | 1017.6 |
| 20260506082920 | 13 | 187 | 0.0 | 3.2 | 0.00 | 0.00 | 0.00 | 87 | 1017.6 |
| 20260506081438 | 13 | 138 | 0.0 | 3.2 | 0.00 | 0.00 | 0.00 | 86 | 1017.5 |
| 20260506080912 | 13 | 119 | 1.6 | 6.4 | 0.00 | 0.00 | 0.00 | 86 | 1017.5 |
| 20260506072420 | 13 | 111 | 1.6 | 6.4 | 0.00 | 0.00 | 0.00 | 86 | 1017.1 |
| 20260506071419 | 13 | 131 | 1.6 | 6.4 | 0.00 | 0.00 | 0.00 | 85 | 1017.0 |
| 20260506070926 | 13 | 134 | 3.2 | 8.0 | 0.00 | 0.00 | 0.00 | 85 | 1016.9 |
| 20260506070815 | 13 | 122 | 3.2 | 8.0 | 0.00 | 0.00 | 0.00 | 85 | 1016.8 |
| 20260506062418 | 14 | 131 | 1.6 | 6.4 | 0.00 | 0.00 | 0.00 | 83 | 1016.5 |
| 20260506061417 | 14 | 156 | 1.6 | 6.4 | 0.00 | 0.00 | 0.00 | 83 | 1016.5 |
| 20260506060417 | 14 | 190 | 1.6 | 11.3 | 0.00 | 0.00 | 0.00 | 82 | 1016.4 |
| 20260506051405 | 15 | 145 | 0.0 | 3.2 | 0.00 | 0.03 | 0.00 | 82 | 1016.2 |
| 20260506050400 | 15 | 118 | 1.6 | 4.8 | 0.00 | 0.10 | 0.00 | 82 | 1016.1 |
| 20260506044348 | 15 | 119 | 0.0 | 3.2 | 0.00 | 0.18 | 0.00 | 81 | 1015.8 |
| 20260506043347 | 15 | 115 | 1.6 | 4.8 | 0.00 | 0.18 | 0.00 | 81 | 1015.6 |
| 20260506042341 | 15 | 149 | 0.0 | 1.6 | 0.00 | 0.18 | 0.00 | 81 | 1015.4 |
| 20260506041805 | 15 | 132 | 0.0 | 4.8 | 0.00 | 0.18 | 0.00 | 80 | 1015.3 |
| 20260506040318 | 15 | 148 | 0.0 | 3.2 | 0.00 | 0.18 | 0.00 | 80 | 1015.1 |
| 20260506035306 | 15 | 122 | 1.6 | 4.8 | 0.00 | 0.18 | 0.00 | 80 | 1015.0 |
| 20260506034251 | 15 | 115 | 1.6 | 6.4 | 0.00 | 0.18 | 0.00 | 79 | 1014.9 |
| 20260506033236 | 16 | 105 | 0.0 | 4.8 | 0.00 | 0.18 | 0.00 | 79 | 1014.7 |
| 20260506032228 | 16 | 105 | 3.2 | 8.0 | 0.00 | 0.18 | 0.00 | 79 | 1014.5 |
| 20260506031215 | 16 | 111 | 1.6 | 4.8 | 0.00 | 0.18 | 0.00 | 78 | 1014.2 |
| 20260506030638 | 16 | 171 | 1.6 | 4.8 | 0.00 | 0.18 | 0.00 | 78 | 1014.1 |
| 20260506025158 | 16 | 213 | 1.6 | 6.4 | 0.00 | 0.18 | 0.00 | 77 | 1014.0 |
| 20260506024154 | 16 | 173 | 3.2 | 8.0 | 0.00 | 0.18 | 0.00 | 76 | 1014.1 |
| 20260506023154 | 16 | 226 | 1.6 | 8.0 | 0.00 | 0.18 | 0.00 | 75 | 1014.0 |
| 20260506022629 | 17 | 209 | 0.0 | 3.2 | 0.00 | 0.18 | 0.00 | 76 | 1013.9 |
| 20260506021144 | 17 | 188 | 4.8 | 16.1 | 0.00 | 0.18 | 0.00 | 75 | 1013.8 |
| 20260506020142 | 17 | 164 | 4.8 | 14.5 | 0.00 | 0.18 | 0.00 | 74 | 1013.6 |
| 20260506015617 | 17 | 192 | 4.8 | 11.3 | 0.00 | 0.18 | 0.00 | 74 | 1013.5 |
| 20260506014138 | 17 | 210 | 3.2 | 11.3 | 0.00 | 0.18 | 0.00 | 73 | 1013.5 |
| 20260506013137 | 18 | 229 | 3.2 | 9.7 | 0.00 | 0.18 | 0.00 | 72 | 1013.4 |
| 20260506012138 | 18 | 268 | 3.2 | 9.7 | 0.00 | 0.18 | 0.00 | 73 | 1013.4 |
| 20260506011134 | 18 | 304 | 4.8 | 14.5 | 0.00 | 0.18 | 0.00 | 72 | 1013.4 |
| 20260506010134 | 18 | 223 | 4.8 | 14.5 | 0.00 | 0.18 | 0.00 | 70 | 1013.3 |
| 20260506005134 | 19 | 259 | 4.8 | 11.3 | 0.00 | 0.18 | 0.00 | 71 | 1013.3 |
| 20260506004134 | 19 | 217 | 4.8 | 16.1 | 0.00 | 0.18 | 0.00 | 70 | 1013.1 |
| 20260506003134 | 19 | 238 | 3.2 | 11.3 | 0.00 | 0.18 | 0.00 | 73 | 1013.2 |
| 20260506002134 | 19 | 241 | 4.8 | 11.3 | 0.00 | 0.18 | 0.00 | 72 | 1013.2 |
| 20260506001134 | 19 | 277 | 3.2 | 11.3 | 0.00 | 0.18 | 0.00 | 71 | 1013.1 |
| 20260506000610 | 19 | 200 | 3.2 | 11.3 | 0.00 | 0.18 | 0.00 | 71 | 1013.0 |
| 20260505235131 | 19 | 261 | 4.8 | 11.3 | 0.00 | 0.18 | 0.00 | 70 | 1013.0 |
| 20260505234121 | 20 | 173 | 6.4 | 17.7 | 0.00 | 0.18 | 0.00 | 68 | 1013.0 |
| 20260505233114 | 20 | 252 | 4.8 | 14.5 | 0.00 | 0.18 | 0.00 | 70 | 1013.0 |
| 20260505232551 | 20 | 101 | 3.2 | 16.1 | 0.00 | 0.18 | 0.00 | 68 | 1013.1 |
| 20260505231115 | 20 | 240 | 4.8 | 17.7 | 0.00 | 0.18 | 0.00 | 68 | 1013.1 |
| 20260505230114 | 20 | 103 | 4.8 | 14.5 | 0.00 | 0.18 | 0.00 | 67 | 1013.1 |
| 20260505225114 | 20 | 142 | 6.4 | 16.1 | 0.00 | 0.18 | 0.00 | 69 | 1013.1 |
| 20260505224114 | 20 | 222 | 6.4 | 14.5 | 0.00 | 0.18 | 0.00 | 71 | 1013.3 |
| 20260505223114 | 20 | 140 | 4.8 | 17.7 | 0.00 | 0.18 | 0.00 | 69 | 1013.4 |
| 20260505222113 | 20 | 118 | 4.8 | 14.5 | 0.00 | 0.18 | 0.00 | 71 | 1013.5 |
| 20260505221114 | 19 | 126 | 4.8 | 12.9 | 0.00 | 0.18 | 0.00 | 70 | 1013.6 |
| 20260505220105 | 19 | 190 | 4.8 | 16.1 | 0.00 | 0.20 | 0.00 | 69 | 1013.7 |
| 20260505215103 | 19 | 181 | 4.8 | 11.3 | 0.00 | 0.20 | 0.00 | 70 | 1013.7 |
| 20260505214103 | 18 | 96 | 6.4 | 16.1 | 0.00 | 0.20 | 0.00 | 72 | 1014.0 |
| 20260505213102 | 18 | 103 | 4.8 | 11.3 | 0.00 | 0.23 | 0.00 | 72 | 1014.0 |
| 20260505212542 | 18 | 101 | 1.6 | 9.7 | 0.00 | 0.25 | 0.00 | 74 | 1014.1 |
| 20260505211058 | 18 | 321 | 4.8 | 11.3 | 0.00 | 0.25 | 0.00 | 74 | 1013.9 |
| 20260505210048 | 18 | 138 | 3.2 | 11.3 | 0.00 | 0.25 | 0.00 | 71 | 1013.9 |
| 20260505205048 | 18 | 86 | 3.2 | 8.0 | 0.00 | 0.25 | 0.00 | 71 | 1014.0 |
| 20260505204528 | 18 | 178 | 3.2 | 9.7 | 0.00 | 0.25 | 0.00 | 75 | 1014.2 |
| 20260505203044 | 18 | 98 | 3.2 | 9.7 | 0.00 | 0.25 | 0.00 | 74 | 1014.2 |
| 20260505202045 | 18 | 69 | 3.2 | 9.7 | 0.00 | 0.25 | 0.00 | 72 | 1014.2 |
| 20260505201044 | 18 | 207 | 3.2 | 9.7 | 0.00 | 0.25 | 0.00 | 73 | 1014.3 |
| 20260505200525 | 17 | 121 | 3.2 | 8.0 | 0.00 | 0.25 | 0.00 | 71 | 1014.4 |
| 20260505195526 | 17 | 186 | 1.6 | 6.4 | 0.00 | 0.25 | 0.00 | 72 | 1014.4 |
| 20260505194040 | 17 | 125 | 3.2 | 8.0 | 0.00 | 0.25 | 0.00 | 75 | 1014.3 |
| 20260505193526 | 17 | 114 | 3.2 | 6.4 | 0.00 | 0.25 | 0.00 | 76 | 1014.4 |
| 20260505192033 | 17 | 163 | 3.2 | 8.0 | 0.00 | 0.25 | 0.00 | 75 | 1014.4 |
| 20260505191034 | 17 | 263 | 1.6 | 8.0 | 0.00 | 0.25 | 0.00 | 75 | 1014.4 |
| 20260505190035 | 16 | 254 | 1.6 | 6.4 | 0.00 | 0.25 | 0.00 | 76 | 1014.5 |
| 20260505185035 | 16 | 304 | 3.2 | 8.0 | 0.00 | 0.25 | 0.00 | 77 | 1014.4 |
| 20260505184021 | 16 | 264 | 3.2 | 8.0 | 0.00 | 0.25 | 0.00 | 76 | 1014.4 |
| 20260505183010 | 16 | 208 | 4.8 | 9.7 | 0.00 | 0.25 | 0.00 | 77 | 1014.4 |
| 20260505181957 | 16 | 268 | 4.8 | 11.3 | 0.00 | 0.25 | 0.00 | 76 | 1014.3 |
| 20260505180958 | 16 | 213 | 3.2 | 11.3 | 0.00 | 0.25 | 0.00 | 78 | 1014.1 |
| 20260505175955 | 15 | 311 | 4.8 | 8.0 | 0.00 | 0.25 | 0.00 | 77 | 1014.1 |
| 20260505174955 | 16 | 213 | 3.2 | 11.3 | 0.00 | 0.25 | 0.00 | 77 | 1014.0 |
| 20260505173954 | 16 | 265 | 1.6 | 4.8 | 0.00 | 0.25 | 0.00 | 79 | 1013.9 |
| 20260505172951 | 16 | 261 | 3.2 | 9.7 | 0.00 | 0.25 | 0.00 | 75 | 1013.8 |
| 20260505171952 | 15 | 325 | 4.8 | 11.3 | 0.00 | 0.25 | 0.00 | 76 | 1013.9 |
| 20260505170951 | 15 | 20 | 6.4 | 16.1 | 0.00 | 0.25 | 0.00 | 77 | 1013.8 |
| 20260505170904 | 15 | 277 | 4.8 | 11.3 | 0.00 | 0.25 | 0.00 | 80 | 1014.0 |
| 20260505165434 | 14 | 298 | 3.2 | 9.7 | 0.00 | 0.25 | 0.00 | 82 | 1014.0 |
| 20260505164448 | 14 | 302 | 3.2 | 14.5 | 0.00 | 0.25 | 0.00 | 82 | 1013.9 |
| 20260505162943 | 13 | 257 | 3.2 | 12.9 | 0.00 | 0.25 | 0.00 | 83 | 1013.9 |
| 20260505162850 | 13 | 252 | 1.6 | 9.7 | 0.00 | 0.25 | 0.00 | 87 | 1013.8 |
| 20260505160925 | 13 | 343 | 3.2 | 8.0 | 0.00 | 0.25 | 0.00 | 86 | 1013.9 |
| 20260505160410 | 13 | 265 | 0.0 | 4.8 | 0.00 | 0.25 | 0.00 | 90 | 1013.9 |
| 20260505152909 | 12 | 347 | 0.0 | 3.2 | 0.00 | 0.25 | 0.00 | 90 | 1013.8 |
| 20260505151910 | 12 | 329 | 3.2 | 8.0 | 0.00 | 0.25 | 0.00 | 91 | 1013.8 |
| 20260505150858 | 12 | 0 | 1.6 | 6.4 | 0.00 | 0.25 | 0.00 | 93 | 1013.5 |
| 20260505123732 | 10 | 35 | 3.2 | 4.8 | 0.00 | 0.25 | 0.00 | 93 | 1012.7 |
| 20260505123207 | 11 | 58 | 0.0 | 3.2 | 0.00 | 0.25 | 0.00 | 94 | 1012.7 |
| 20260505121726 | 11 | 58 | 0.0 | 0.0 | 0.00 | 0.25 | 0.00 | 94 | 1012.8 |
| 20260505120703 | 11 | 58 | 0.0 | 0.0 | 0.00 | 0.25 | 0.00 | 95 | 1012.8 |
| 20260505115701 | 11 | 58 | 0.0 | 0.0 | 0.00 | 0.25 | 0.00 | 94 | 1012.7 |
| 20260505114701 | 11 | 58 | 0.0 | 3.2 | 0.00 | 0.25 | 0.00 | 94 | 1012.8 |
| 20260505113648 | 11 | 58 | 0.0 | 3.2 | 0.00 | 0.25 | 0.00 | 94 | 1012.9 |